Location: ??????
(41.3164°N, 22.6615°E)
Time: 20:55:17
(UTC+00:00)

ATLAS 5 CENTAUR R/B - Pass Details

Date: 16 October 2021
Orbit: 497 x 1159 km, 63.4° (Epoch: 25 November)

Event Time Altitude Azimuth Distance (km) Brightness Sun altitude
Rises 18:41:32 0° 258° (WSW) 2,616 5.6 -33.2°
Reaches altitude 10° 18:44:12 10° 279° (W) 1,785 4.7 -33.7°
Enters shadow 18:46:05 17° 307° (NW) 1,460 4.1 -34.0°
